Cozumel, Mexico

9:27 AM on April 25, 2017 (GMT +0000)
Cozumel International

Weather History for MMCZ - October, 2011

Change the Weather History Date:

Sunday, October 2, 2011

  Actual Average Record
Temperature  
Mean Temperature 76 °F -  
Max Temperature 84 °F 87 °F 93 °F (1998)
Min Temperature 68 °F 75 °F 68 °F (2011)
Cooling Degree Days 11    
Growing Degree Days 26 (Base 50)    
Moisture  
Dew Point 72 °F    
Average Humidity 84    
Maximum Humidity 100    
Minimum Humidity 62    
Precipitation  
Precipitation 0.00 in - - ()
Sea Level Pressure  
Sea Level Pressure 29.92 in    
Wind  
Wind Speed 4 mph ()    
Max Wind Speed 10 mph    
Max Gust Speed -    
Visibility 7.3 miles    
Events Rain    
Averages and records for this station are not official NWS values.
T = Trace of Precipitation, MM = Missing Value Source: Averaged Metar Reports

Daily Weather History Graph

Daily Weather History Graph

Search for Another Location

Airport or City:

Trip Planner

Search our weather history database for the weather conditions in past years. The results will help you decide how hot, cold, wet, or windy it might be!

Date:

Astronomy

Oct. 02, 2011 Rise Set
Actual Time 6:38 AM CDT 6:34 PM CDT
Civil Twilight 6:16 AM CDT 6:57 PM CDT
Nautical Twilight 5:51 AM CDT 7:22 PM CDT
Astronomical Twilight 5:25 AM CDT 7:48 PM CDT
Moon 12:02 PM CDT (10/2) 11:14 PM CDT (10/2)
Length of Visible Light 12h 40m
Length of Day
11h 56m
Waxing Crescent, 35% of the Moon is Illuminated
Oct 2
Waxing Crescent
Oct 3
First Quarter
Oct 11
Full
Oct 19
Last Quarter
Oct 26
New

Hourly Weather History & Observations

Time (CDT) Temp. Heat Index Dew Point Humidity Pressure Visibility Wind Dir Wind Speed Gust Speed Precip Events Conditions
12:45 AM 73.4 °F - 71.6 °F 94% 29.88 in 7.0 mi Calm Calm - N/A   Scattered Clouds
1:44 AM 71.6 °F - 71.6 °F 100% 29.91 in 4.0 mi Calm Calm - N/A Rain Light Rain
2:41 AM 73.4 °F - 73.4 °F 100% 29.89 in 7.0 mi North 9.2 mph - N/A   Scattered Clouds
3:42 AM 73.4 °F - 71.6 °F 94% 29.91 in 7.0 mi Calm Calm - N/A   Scattered Clouds
4:40 AM 73.4 °F - 71.6 °F 94% 29.86 in 7.0 mi NE 3.5 mph - N/A   Scattered Clouds
6:47 AM 68.0 °F - 68.0 °F 100% 29.87 in 7.0 mi Calm Calm - N/A   Mostly Cloudy
7:42 AM 68.0 °F - 68.0 °F 100% 29.94 in 7.0 mi Calm Calm - N/A   Scattered Clouds
8:40 AM 78.8 °F - 73.4 °F 83% 29.95 in 8.0 mi NNW 4.6 mph - N/A   Scattered Clouds
9:48 AM 82.4 °F 88.2 °F 73.4 °F 74% 29.99 in 8.0 mi NE 8.1 mph - N/A   Scattered Clouds
10:40 AM 82.4 °F 87.2 °F 71.6 °F 70% 29.98 in 8.0 mi ENE 5.8 mph - N/A   Scattered Clouds
11:45 AM 84.2 °F 88.4 °F 69.8 °F 62% 29.97 in 8.0 mi NE 6.9 mph - N/A   Scattered Clouds
12:46 PM 84.2 °F 89.6 °F 71.6 °F 66% 29.93 in 8.0 mi NE 4.6 mph - N/A   Scattered Clouds
1:51 PM 82.4 °F 88.2 °F 73.4 °F 74% 29.91 in 8.0 mi NNW 4.6 mph - N/A   Scattered Clouds
2:45 PM 82.4 °F 88.2 °F 73.4 °F 74% 29.90 in 8.0 mi WNW 3.5 mph - N/A   Mostly Cloudy
3:43 PM 82.4 °F 88.2 °F 73.4 °F 74% 29.92 in 7.0 mi NE 10.4 mph - N/A   Mostly Cloudy
4:44 PM 82.4 °F 87.2 °F 71.6 °F 70% 29.90 in 8.0 mi NE 9.2 mph - N/A   Mostly Cloudy
5:45 PM 78.8 °F - 73.4 °F 83% 29.90 in 8.0 mi ENE 8.1 mph - N/A   Mostly Cloudy
6:46 PM 77.0 °F - 71.6 °F 83% 29.88 in 7.0 mi NE 5.8 mph - N/A   Mostly Cloudy
7:48 PM 77.0 °F - 71.6 °F 83% 29.93 in 7.0 mi NE 6.9 mph - N/A   Scattered Clouds
8:43 PM 77.0 °F - 73.4 °F 89% 29.95 in 7.0 mi ENE 8.1 mph - N/A   Scattered Clouds
9:51 PM 77.0 °F - 71.6 °F 83% 29.99 in 7.0 mi ENE 9.2 mph - N/A   Scattered Clouds
10:45 PM 73.4 °F - 71.6 °F 94% 29.96 in 7.0 mi East 5.8 mph - N/A   Mostly Cloudy